Location: Montreal
(45.5087°N, 73.5540°W)
Time: 04:17:50
(UTC-05:00)

CUTE-I - Visible Passes

Search period start: 18 February 2019 00:00
Search period end: 28 February 2019 00:00
Orbit: 811 x 825 km, 98.7° (Epoch: 17 February)

Date Brightness Start Highest point End Pass type
(mag) Time Alt. Az. Time Alt. Az. Time Alt. Az.
18 Feb ? 05:33:23 10° NE 05:38:04 30° E 05:42:44 10° SSE visible
18 Feb ? 18:39:02 10° SW 18:42:49 20° W 18:46:38 10° NW visible
19 Feb ? 05:12:37 10° NE 05:16:30 20° E 05:20:22 10° SE visible
19 Feb ? 18:16:38 10° SSW 18:21:14 30° W 18:25:53 10° NW visible
20 Feb ? 04:52:29 10° ENE 04:54:51 13° E 04:57:12 10° ESE visible
20 Feb ? 17:54:40 10° S 17:59:44 45° W 18:04:50 10° NNW visible
21 Feb ? 06:08:53 10° NNE 06:14:13 61° ESE 06:19:31 10° S visible
22 Feb ? 05:47:42 10° NNE 05:52:45 40° E 05:57:46 10° SSE visible
22 Feb ? 18:54:42 10° WSW 18:57:35 15° W 19:00:28 10° NW visible
23 Feb ? 05:26:43 10° NE 05:31:14 26° E 05:35:41 10° SSE visible
23 Feb ? 18:31:50 10° SW 18:35:56 22° W 18:40:05 10° NW visible
24 Feb ? 05:06:06 10° NE 05:09:38 18° E 05:13:08 10° SE visible
24 Feb ? 18:09:36 10° SSW 18:14:23 34° W 18:19:13 10° NNW visible
25 Feb ? 04:46:30 10° ENE 04:47:57 11° E 04:49:24 10° ESE visible
26 Feb ? 06:02:08 10° NNE 06:07:24 53° E 06:12:39 10° S visible
26 Feb ? 19:11:25 10° W 19:12:23 10° W 19:13:20 10° WNW visible
27 Feb ? 05:41:01 10° NNE 05:45:55 35° E 05:50:48 10° SSE visible
27 Feb ? 18:47:20 10° SW 18:50:41 17° W 18:54:04 10° NW visible
